Вернуться в каталог

STARLINK-30514

АктивенСвязьVLEO
NORAD 58028·PAYLOAD·🇺🇸 United States

Запущен Oct 9, 2023 с Vandenberg Space Force Base

Loading…

Ближайшие Пролёты (ближайшие 24 часа)

TLE

СвежийSource: CelesTrak SupGP

Эпоха: Sep 14, 2026, 20:46 UTC

1 58028C 23156A   26257.86576389  .00031710  00000+0  93715-3 0  2570
2 58028  53.1577 277.7428 0001188  89.5331  29.3837 15.34365678    18

Отслеживайте STARLINK-30514 в реальном времени с AllMySat

Download on the App Store